Weather in Piraeus

Greece     37°56′45″N   23°39′13″E
temp.,
°C
wind,
m/s
gust,
m/s
humid.,
%
clouds,
%
prec.,
mm/h
press.,
hPa
HPBL,
m
29 november, mon
mon2923:00+16s48904 0.0 1007248
02:00+15se358594 0.0 1003149
05:00+18ssw71477100 0.0 1000313
08:00+17sw10147299 0.0 1002450
11:00+17sw132063100 0.0 10041669
14:00+16sw14216598 0.2 10041815
17:00+15wsw1116574 0.1 10061107
20:00+14sw1015514 0.1 1008846
30 november, tue
tue3023:00+14sw10165442 0.0 1008865
02:00+14ssw14206794 0.2 10041447
05:00+12wsw15206492 1.3 10041442
08:00+12wsw1015560 1.3 1006856
11:00+13wsw912554 0.0 10091331
14:00+13w813572 0.0 10091382
17:00+11w915550 0.0 10111031
20:00+10wnw711590 0.0 1013552
1 december, wed
wed123:00+9wnw47644 0.0 1015335
02:00+8nnw22690 0.0 101774
05:00+7nw12720 0.0 101759
08:00+7wnw23660 0.0 1018101
11:00+11w35500 0.0 1018678
14:00+13w34430 0.0 1017786
17:00+11wsw33570 0.0 1017185
20:00+10wsw23640 0.0 1017148
2 december, thu
thu223:00+9w12700 0.0 101764
02:00+8w11770 0.0 101643
05:00+8nw11803 0.0 101536
08:00+8nw11780 0.0 101532
11:00+12wsw23620 0.0 1016403
14:00+14sw33524 0.0 1014612
17:00+12ssw22620 0.0 101484
20:00+11ssw11720 0.0 101530
3 december, fri
fri323:00+11ssw22730 0.0 101424
02:00+11s22772 0.0 101326
05:00+11s22840 0.0 101246
08:00+13ssw510860 0.4 1012214
11:00+16ssw11147716 2.3 10121228
14:00+16ssw12167638 4.8 10091306
17:00+15ssw14198023 1.2 10071061
20:00+15ssw121784100 3.5 1006840